User: anonymous   Login
Location: Unspecified
(0.0000°N, 0.0000°E)
Time: 22:37:02
(UTC+02:00)
Language:

ATLAS 2AS CENTAUR R/B - Orbit

View from above orbital plane
View from above orbital plane
View from above satellite
View from above satellite

Ground track
Ground track

The orbit data is extracted from the following two-line orbital elements,

1 28096U 03054B   17141.98482122 0.00000030  00000-0  44009-4 0    04
2 28096  63.6665 123.9783 0267715 262.5122  97.4878 13.40825738    04
Epoch (UTC): 21 May 2017 23:38:08
Eccentricity: 0.0267715
inclination: 63.6665°
perigee height: 906 km
apogee height: 1306 km
right ascension of ascending node: 123.9783°
argument of perigee: 262.5122°
revolutions per day: 13.40825738
mean anomaly at epoch: 97.4878°
orbit number at epoch: 0

The dashed part of the orbit path shows where the satellite is in the earth's shadow,  

DLR